This is the latest recevied weather packets stored in our database for station/object N0HOT. If no packets are shown the sender has not sent any weather packets the latest 10 day(s).
| Time | Temp. | Humidity | Pressure | Rain* | Wind** | Luminosity | Snow |
|---|---|---|---|---|---|---|---|
| 1788035790 | 27.22° C | 59% | 1011.1 hPa | 0 mm | - | 297 W/m² | - |
| 1788035487 | 27.22° C | 58% | 1011.1 hPa | 0 mm | - | 278 W/m² | - |
| 1788035181 | 27.22° C | 58% | 1011.1 hPa | 0 mm | - | 325 W/m² | - |
| 1788034878 | 26.67° C | 58% | 1011.5 hPa | 0 mm | - | 562 W/m² | - |
| 1788034573 | 26.67° C | 59% | 1011.1 hPa | 0 mm | - | 543 W/m² | - |
| 1788034269 | 26.67° C | 58% | 1011.1 hPa | 0 mm | - | 525 W/m² | - |
| 1788033969 | 26.67° C | 60% | 1011.1 hPa | 0 mm | - | 485 W/m² | - |
| 1788033663 | 26.67° C | 60% | 1011.1 hPa | 0 mm | - | 583 W/m² | - |
| 1788033362 | 26.67° C | 61% | 1011.5 hPa | 0 mm | - | 603 W/m² | - |
| 1788033058 | 26.11° C | 62% | 1011.5 hPa | 0 mm | - | 597 W/m² | - |
| 1788032758 | 26.11° C | 62% | 1011.8 hPa | 0 mm | - | 592 W/m² | - |
| 1788032453 | 26.11° C | 65% | 1011.8 hPa | 0 mm | - | 599 W/m² | - |
| 1788032148 | 25.56° C | 62% | 1011.8 hPa | 0 mm | - | 533 W/m² | - |
| 1788031844 | 25.56° C | 63% | 1012.2 hPa | 0 mm | - | 646 W/m² | - |
| 1788031539 | 25° C | 63% | 1012.2 hPa | 0 mm | - | 633 W/m² | - |
| 1788031238 | 25° C | 64% | 1012.2 hPa | 0 mm | - | 633 W/m² | - |
| 1788030938 | 24.44° C | 66% | 1012.2 hPa | 0 mm | - | 584 W/m² | - |
| 1788030637 | 23.89° C | 69% | 1012.2 hPa | 0 mm | - | 614 W/m² | - |
| 1788030331 | 23.33° C | 72% | 1012.5 hPa | 0 mm | - | 645 W/m² | - |
| 1788030028 | 22.78° C | 72% | 1012.2 hPa | 0 mm | - | 661 W/m² | - |
| 1788029722 | 22.22° C | 75% | 1012.5 hPa | 0 mm | - | 609 W/m² | - |
| 1788029417 | 22.22° C | 74% | 1012.8 hPa | 0 mm | - | 613 W/m² | - |
| 1788029116 | 21.67° C | 77% | 1012.8 hPa | 0 mm | - | 649 W/m² | - |
| 1788028811 | 21.11° C | 77% | 1012.8 hPa | 0 mm | - | 530 W/m² | - |
| 1788028510 | 21.11° C | 80% | 1012.8 hPa | 0 mm | - | 341 W/m² | - |
* Rain latest hour (hover to see other rain measurements)
** Current wind speed in m/s (hover to see current wind gust speed)